(136544) = 2000 HP102 = 2004 EE52 = 4773 P-L

Discovered at Palomar on 1960-09-24 by C. J. van Houten, I. van Houten-Groeneveld, and T. Gehrels.

Orbit

Orbit type: Main Belt

Note: WebGL enabled browser required.

epoch2023-09-13.0
epoch JD2460200.5
perihelion date2021-03-17.25583
perihelion JD2459290.75583
argument of perihelion (°)181.45676
ascending node (°)224.66595
inclination (°)1.04603
eccentricity0.0715172
perihelion distance (AU)2.5745944
Tisserand w.r.t. Jupiter3.3
ΔV w.r.t. Earth (km/sec)10.0
semimajor axis (AU)2.7729047
mean anomaly (°)194.18725
mean daily motion (°/day)0.21345260
aphelion distance (AU)2.971
period (years)4.62
P-vector [x]0.69311919
P-vector [y]0.66152664
P-vector [z]0.28630105
Q-vector [x]-0.72070874
Q-vector [y]0.64307231
Q-vector [z]0.25891488
absolute magnitude16.04
phase slope0.15
uncertainty0
referenceMPO 777751
observations used597
oppositions20
arc length (days)22913
first opposition used1960
last opposition used2023
residual rms (arc-secs)0.70
perturbers coarse indicatorM-v
perturbers precise indicator003Ek
first observation date used1960-09-24.0
last observation date used2023-06-19.0
computer nameMPCLINUX
JD of orbit computation2456847.827720
perihelion JD uncertainty (days)1.4033E-04
argument of perihelion uncertainty (°)2.3059E-04
ascending node uncertainty (°)2.2874E-04
inclination uncertainty (°)4.9108E-06
eccentricity uncertainty 4.4215E-08
perihelion distance uncertainty (AU)1.2195E-07
Minimum Orbit Intersection Distances (in AU)
for orbit epoch: 2460200.5, reference: E2023-T91
Mercury2.25349
Venus1.85208
Earth1.58284
Mars1.05348
Jupiter2.30124
Saturn6.40546
Uranus15.5658
Neptune27.2511

Observations

614 total observations over interval: 1960 09 24.38750 – 2023 06 19.309514
These data are available for download (format description).

Date (UT) J2000 RA J2000 Dec Magn Location Ref
1960 09 24.38750 00 26 52.84 +04 05 21.3 19.8   675 – Palomar Mountain MPS 285419
1960 09 24.38750 00 26 52.91 +04 05 23.8 20.0   675 – Palomar Mountain MPS 16070
1960 09 24.41180 00 26 51.62 +04 05 14.1 20.6   675 – Palomar Mountain MPS 285419
1960 09 25.39445 00 26 04.58 +03 59 52.8 20.1 V 675 – Palomar Mountain MPS 285419
1960 09 25.42778 00 26 02.87 +03 59 41.5 19.3 V 675 – Palomar Mountain MPS 285419
1960 09 26.30555 00 25 20.77 +03 54 51.8 20.3   675 – Palomar Mountain MPS 285419
1960 09 26.31528 00 25 20.26 +03 54 49.6 20.1   675 – Palomar Mountain MPS 285419
1960 09 26.32569 00 25 19.74 +03 54 45.7 20.6   675 – Palomar Mountain MPS 285419
1960 09 26.33541 00 25 19.26 +03 54 43.5 19.8   675 – Palomar Mountain MPS 285419
1960 09 27.37500 00 24 28.92 +03 48 58.4 19.4 V 675 – Palomar Mountain MPS 285419
1960 09 27.40833 00 24 27.22 +03 48 46.8 19.4 V 675 – Palomar Mountain MPS 285419
1960 09 28.37778 00 23 40.33 +03 43 24.9 20.5   675 – Palomar Mountain MPS 285419
1960 09 28.39722 00 23 39.38 +03 43 17.7 19.3   675 – Palomar Mountain MPS 285419
1960 10 24.33403 00 05 20.14 +01 31 55.7 19.5 V 675 – Palomar Mountain MPS 285419
1960 10 26.30417 00 04 22.71 +01 24 30.8 20.7   675 – Palomar Mountain MPS 285419
1960 10 26.32570 00 04 22.12 +01 24 25.6 20.5   675 – Palomar Mountain MPS 285419
1995 03 27.34011 12 22 29.78 -03 30 45.5 19.8 V 691 – Steward Observatory, Kitt Peak-Spacewatch MPS 151278
1995 03 27.36148 12 22 28.72 -03 30 38.8   691 – Steward Observatory, Kitt Peak-Spacewatch MPS 151278
1995 03 27.38287 12 22 27.64 -03 30 31.7   691 – Steward Observatory, Kitt Peak-Spacewatch MPS 151278
1997 10 21.30207 00 41 58.15 +05 20 26.0 19.3 V 691 – Steward Observatory, Kitt Peak-Spacewatch MPS 151278
1997 10 21.32338 00 41 57.20 +05 20 20.2 19.5 V 691 – Steward Observatory, Kitt Peak-Spacewatch MPS 151278
1997 10 21.34475 00 41 56.25 +05 20 13.6 19.7 V 691 – Steward Observatory, Kitt Peak-Spacewatch MPS 151278
1999 03 10.14861 08 16 13.33 +18 16 56.5 20.8 V 691 – Steward Observatory, Kitt Peak-Spacewatch MPS 151278
1999 03 10.17036 08 16 13.02 +18 16 58.1 20.8 V 691 – Steward Observatory, Kitt Peak-Spacewatch MPS 151278
1999 03 10.19236 08 16 12.72 +18 16 59.6 20.5 V 691 – Steward Observatory, Kitt Peak-Spacewatch MPS 151278
2000 04 26.34090 14 27 44.11 -14 47 59.1 20.6 V 691 – Steward Observatory, Kitt Peak-Spacewatch MPS 17040
2000 04 26.36231 14 27 42.97 -14 47 53.6 20.5 V 691 – Steward Observatory, Kitt Peak-Spacewatch MPS 17040
2000 04 26.38374 14 27 41.85 -14 47 47.7 20.5 V 691 – Steward Observatory, Kitt Peak-Spacewatch MPS 17040
2002 11 13.46595 03 59 54.07 +20 12 15.5 20.0   644 – Palomar Mountain/NEAT MPS 151278
2002 11 13.47079 03 59 53.78 +20 12 14.6 19.6   644 – Palomar Mountain/NEAT MPS 151278
2002 11 13.48180 03 59 53.20 +20 12 12.5 19.7   644 – Palomar Mountain/NEAT MPS 151278
2002 11 13.48779 03 59 52.86 +20 12 11.4 19.9   644 – Palomar Mountain/NEAT MPS 151278
2002 11 13.49272 03 59 52.58 +20 12 10.4 20.2   644 – Palomar Mountain/NEAT MPS 151278
2002 11 13.51144 03 59 51.53 +20 12 07.4 20.1   644 – Palomar Mountain/NEAT MPS 151278
2002 11 23.31222 03 50 45.07 +19 40 46.2 19.3   644 – Palomar Mountain/NEAT MPS 151278
2002 11 23.33443 03 50 43.77 +19 40 42.0 19.4   644 – Palomar Mountain/NEAT MPS 151278
2002 11 23.35552 03 50 42.51 +19 40 37.8 19.2   644 – Palomar Mountain/NEAT MPS 151278
2002 12 02.23301 03 42 35.22 +19 11 23.6 19.4   704 – Lincoln Laboratory ETS, New Mexico MPS 151278
2002 12 02.26228 03 42 33.66 +19 11 18.8 20.0   704 – Lincoln Laboratory ETS, New Mexico MPS 151278
2002 12 02.29150 03 42 32.07 +19 11 12.2 19.4   704 – Lincoln Laboratory ETS, New Mexico MPS 151278
2004 02 17.35085 11 18 20.88 +02 58 42.3 20.4 V 291 – LPL/Spacewatch II MPS 151278
2004 02 17.37459 11 18 19.85 +02 58 48.4 20.5 V 291 – LPL/Spacewatch II MPS 151278
2004 02 17.39788 11 18 18.81 +02 58 54.7 20.3 V 291 – LPL/Spacewatch II MPS 151278
2004 03 15.27584 10 56 55.93 +05 16 35.1 20.4   704 – Lincoln Laboratory ETS, New Mexico MPS 102319
2004 03 15.28654 10 56 55.47 +05 16 37.3 20.2   704 – Lincoln Laboratory ETS, New Mexico MPS 102319
2004 03 15.30500 10 56 54.54 +05 16 43.5 20.3   704 – Lincoln Laboratory ETS, New Mexico MPS 102319
2004 03 18.31037 10 54 36.05 +05 32 00.5 20.2   704 – Lincoln Laboratory ETS, New Mexico MPS 151278
2004 03 18.32192 10 54 35.39 +05 32 04.1 20.5   704 – Lincoln Laboratory ETS, New Mexico MPS 151278
2004 03 18.33354 10 54 34.85 +05 32 07.7 20.0   704 – Lincoln Laboratory ETS, New Mexico MPS 151278
2004 03 18.35873 10 54 33.67 +05 32 14.5 20.1 V 691 – Steward Observatory, Kitt Peak-Spacewatch MPS 102319
2004 03 18.38954 10 54 32.22 +05 32 23.6 20.3 V 691 – Steward Observatory, Kitt Peak-Spacewatch MPS 102319
2004 03 18.41994 10 54 30.84 +05 32 32.6 20.2 V 691 – Steward Observatory, Kitt Peak-Spacewatch MPS 102319
2005 02 09.32880 16 27 28.07 -21 38 40.1 21.2 R 809 – European Southern Observatory, La Silla MPS 151278
2005 02 09.33520 16 27 28.52 -21 38 41.0 21.5 R 809 – European Southern Observatory, La Silla MPS 151278
2005 02 09.34148 16 27 28.93 -21 38 41.9 21.7 R 809 – European Southern Observatory, La Silla MPS 151278
2005 06 27.23419 16 17 29.68 -20 33 29.9 20.1 V G96 – Mt. Lemmon Survey MPS 151278
2005 06 27.23964 16 17 29.47 -20 33 29.3 20.2 V G96 – Mt. Lemmon Survey MPS 151278
2005 06 27.24506 16 17 29.25 -20 33 28.5 20.0 V G96 – Mt. Lemmon Survey MPS 151278
2005 06 27.25049 16 17 29.04 -20 33 28.1 20.8 V G96 – Mt. Lemmon Survey MPS 151278
2006 08 19.39999 23 26 45.10 -02 01 32.8 19.7 V 691 – Steward Observatory, Kitt Peak-Spacewatch MPS 176167
2006 08 19.41855 23 26 44.43 -02 01 37.1 19.9 V 691 – Steward Observatory, Kitt Peak-Spacewatch MPS 176167
2006 08 19.43593 23 26 43.78 -02 01 41.2 19.9 V 691 – Steward Observatory, Kitt Peak-Spacewatch MPS 176167
2006 08 27.36268 23 21 32.47 -02 34 30.2 19.7 R 699 – Lowell Observatory-LONEOS MPS 177307
2006 08 27.38089 23 21 31.65 -02 34 36.4   699 – Lowell Observatory-LONEOS MPS 177307
2006 08 27.39909 23 21 30.87 -02 34 40.9   699 – Lowell Observatory-LONEOS MPS 177307
2006 08 27.41727 23 21 30.10 -02 34 44.8   699 – Lowell Observatory-LONEOS MPS 177307
2006 08 28.36185 23 20 49.37 -02 39 06.6 19.7 V 691 – Steward Observatory, Kitt Peak-Spacewatch MPS 177307
2006 08 28.37922 23 20 48.58 -02 39 11.4 19.7 V 691 – Steward Observatory, Kitt Peak-Spacewatch MPS 177307
2006 08 28.39659 23 20 47.79 -02 39 16.3 19.7 V 691 – Steward Observatory, Kitt Peak-Spacewatch MPS 177307
2006 09 12.35146 23 09 06.12 -03 55 41.4 19.1 V 703 – Catalina Sky Survey MPS 179018
2006 09 12.35624 23 09 05.83 -03 55 42.7 19.7 V 703 – Catalina Sky Survey MPS 179018
2006 09 12.36103 23 09 05.58 -03 55 43.6 20.0 V 703 – Catalina Sky Survey MPS 179018
2006 09 12.36584 23 09 05.40 -03 55 45.6 19.3 V 703 – Catalina Sky Survey MPS 179018
2006 09 16.27292 23 05 58.60 -04 16 31.8 18.9 R 699 – Lowell Observatory-LONEOS MPS 180687
2006 09 16.29117 23 05 57.79 -04 16 35.4   699 – Lowell Observatory-LONEOS MPS 180687
2006 09 16.30944 23 05 56.83 -04 16 42.9   699 – Lowell Observatory-LONEOS MPS 180687
2006 09 16.32768 23 05 55.86 -04 16 49.8   699 – Lowell Observatory-LONEOS MPS 180687
2006 09 20.21542 23 02 55.29 -04 37 07.3 19.1   704 – Lincoln Laboratory ETS, New Mexico MPS 180687
2006 09 20.22685 23 02 54.75 -04 37 10.7 19.9   704 – Lincoln Laboratory ETS, New Mexico MPS 180687
2006 09 20.23826 23 02 54.21 -04 37 15.7 19.6   704 – Lincoln Laboratory ETS, New Mexico MPS 180687
2006 09 20.24965 23 02 53.68 -04 37 18.1 19.4   704 – Lincoln Laboratory ETS, New Mexico MPS 180687
2006 09 20.26103 23 02 53.19 -04 37 21.1 19.4   704 – Lincoln Laboratory ETS, New Mexico MPS 180687
2006 09 27.26602 22 57 51.69 -05 11 45.2 19.5 V G96 – Mt. Lemmon Survey MPS 182388
2006 09 27.27325 22 57 51.40 -05 11 47.1 19.5 V G96 – Mt. Lemmon Survey MPS 182388
2006 09 27.28051 22 57 51.08 -05 11 49.0 19.6 V G96 – Mt. Lemmon Survey MPS 182388
2006 09 27.28781 22 57 50.79 -05 11 51.2 19.6 V G96 – Mt. Lemmon Survey MPS 182388
2006 09 30.24403 22 55 56.66 -05 25 07.1 19.4 R 699 – Lowell Observatory-LONEOS MPS 183567
